Location: Clarion Chiropractic Clinic
(42.7328°N, 93.7344°W)
Time: 19:17:18
(UTC+00:00)

Daily predictions for brighter satellites

Satellite Brightness Start Highest point End
(mag) Time Altitude Azimuth Time Altitude Azimuth Time Altitude Azimuth
Meteor 2-12 Rocket 4.4 12:00:07 10° NNW 12:06:16 74° W 12:12:24 10° S
H-2A R/B 2.9 12:05:04 10° N 12:08:53 53° WNW 12:12:39 10° SSW
ATLAS 5 CENTAUR R/B 2.5 12:05:49 10° WSW 12:09:19 28° NW 12:13:13 10° NNE
Cosmos 1140 Rocket 4.1 12:04:44 10° SW 12:09:29 35° WNW 12:14:15 10° N
RESURS DK-1 2.3 12:08:49 10° SSW 12:12:56 85° WNW 12:17:05 10° NNE
Cosmos 1812 2.8 12:09:36 10° SSW 12:13:23 57° W 12:17:10 10° N
Cosmos 1328 Rocket 4.4 12:09:50 10° SW 12:13:31 27° WNW 12:17:14 10° NNW
CZ-2C R/B 4.1 12:12:33 10° S 12:14:27 13° SSE 12:16:22 10° SE
Cosmos 1515 Rocket 3.8 12:10:33 10° SSW 12:14:43 46° WNW 12:18:57 10° N
NOSS 3-4 (A) 4.1 12:10:42 10° WSW 12:16:08 37° NW 12:21:59 10° NNE
NOSS 3-4 (C) 4.0 12:10:47 10° WSW 12:16:14 38° NW 12:22:05 10° NNE
